Time,TemperatureF,DewpointF,PressureIn,WindDirection,WindDirectionDegrees,WindSpeedMPH,WindSpeedGustMPH,Humidity,HourlyPrecipIn,Conditions,Clouds,dailyrainin,SoftwareType,DateUTC
2013-07-15 00:03:00,74.7,71.9,30.15,East,90,0.0,0.7,91,0.00,,,0.00,WUHU216HW,2013-07-15 04:03:00,
2013-07-15 00:08:00,74.7,71.9,30.16,ENE,68,0.0,0.9,91,0.00,,,0.00,WUHU216HW,2013-07-15 04:08:00,
2013-07-15 00:13:00,74.5,71.7,30.16,NE,45,0.0,1.6,91,0.00,,,0.00,WUHU216HW,2013-07-15 04:13:00,
2013-07-15 00:18:00,74.5,71.7,30.16,NE,45,0.7,1.6,91,0.00,,,0.00,WUHU216HW,2013-07-15 04:18:00,
2013-07-15 00:23:00,74.5,71.7,30.16,NE,45,0.0,0.7,91,0.00,,,0.00,WUHU216HW,2013-07-15 04:23:00,
2013-07-15 00:28:00,74.5,71.7,30.16,NE,45,0.2,0.4,91,0.00,,,0.00,WUHU216HW,2013-07-15 04:28:00,
2013-07-15 00:33:00,74.5,71.7,30.16,NE,45,1.6,1.6,91,0.00,,,0.00,WUHU216HW,2013-07-15 04:33:00,
2013-07-15 00:38:00,74.3,71.9,30.16,NE,45,1.6,1.6,92,0.00,,,0.00,WUHU216HW,2013-07-15 04:38:00,
2013-07-15 00:43:00,74.3,71.9,30.16,NE,45,0.7,1.6,92,0.00,,,0.00,WUHU216HW,2013-07-15 04:43:00,
2013-07-15 00:48:00,74.3,71.9,30.16,NE,45,0.7,0.9,92,0.00,,,0.00,WUHU216HW,2013-07-15 04:48:00,
2013-07-15 00:53:00,74.2,71.7,30.16,NNE,23,0.4,1.1,92,0.00,,,0.00,WUHU216HW,2013-07-15 04:53:00,
2013-07-15 00:58:00,74.2,71.7,30.16,NNE,23,0.7,1.1,92,0.00,,,0.00,WUHU216HW,2013-07-15 04:58:00,
2013-07-15 01:03:00,74.2,71.7,30.16,NNE,23,0.0,0.7,92,0.00,,,0.00,WUHU216HW,2013-07-15 05:03:00,
2013-07-15 01:08:00,74.2,71.7,30.16,NNE,23,0.0,0.7,92,0.00,,,0.00,WUHU216HW,2013-07-15 05:08:00,
2013-07-15 01:13:00,74.0,71.6,30.16,NNE,23,0.0,0.2,92,0.00,,,0.00,WUHU216HW,2013-07-15 05:13:00,
2013-07-15 01:18:00,74.0,71.6,30.16,NNE,23,0.0,0.0,92,0.00,,,0.00,WUHU216HW,2013-07-15 05:18:00,
2013-07-15 01:23:00,73.8,71.4,30.16,NNE,23,0.0,0.0,92,0.00,,,0.00,WUHU216HW,2013-07-15 05:23:00,
2013-07-15 01:28:00,73.8,71.4,30.16,NNE,23,0.4,0.4,92,0.00,,,0.00,WUHU216HW,2013-07-15 05:28:00,
2013-07-15 01:33:00,73.8,71.4,30.16,NE,45,0.9,0.9,92,0.00,,,0.00,WUHU216HW,2013-07-15 05:33:00,
2013-07-15 01:38:00,73.6,71.2,30.16,NNE,23,0.4,0.9,92,0.00,,,0.00,WUHU216HW,2013-07-15 05:38:00,
2013-07-15 01:43:00,73.6,71.2,30.16,NNE,23,0.0,1.1,92,0.00,,,0.00,WUHU216HW,2013-07-15 05:43:00,
2013-07-15 01:48:00,73.4,71.0,30.16,NNE,23,0.0,1.1,92,0.00,,,0.00,WUHU216HW,2013-07-15 05:48:00,
2013-07-15 01:53:00,73.4,71.0,30.16,NE,45,1.1,1.1,92,0.00,,,0.00,WUHU216HW,2013-07-15 05:53:00,
2013-07-15 01:58:00,73.4,71.0,30.16,NE,45,0.0,1.1,92,0.00,,,0.00,WUHU216HW,2013-07-15 05:58:00,
2013-07-15 02:03:00,73.4,71.3,30.16,NE,45,0.4,1.1,93,0.00,,,0.00,WUHU216HW,2013-07-15 06:03:00,
2013-07-15 02:08:00,73.4,71.3,30.16,NE,45,0.0,0.4,93,0.00,,,0.00,WUHU216HW,2013-07-15 06:08:00,
2013-07-15 02:13:00,73.3,71.1,30.15,NNE,23,0.0,0.9,93,0.00,,,0.00,WUHU216HW,2013-07-15 06:13:00,
2013-07-15 02:18:00,73.3,70.8,30.15,NNE,23,0.0,0.9,92,0.00,,,0.00,WUHU216HW,2013-07-15 06:18:00,
2013-07-15 02:23:00,73.3,70.8,30.16,NNE,23,0.0,0.0,92,0.00,,,0.00,WUHU216HW,2013-07-15 06:23:00,
2013-07-15 02:28:00,73.3,70.8,30.15,NNE,23,0.0,0.4,92,0.00,,,0.00,WUHU216HW,2013-07-15 06:28:00,
2013-07-15 02:33:00,73.3,70.8,30.16,NNE,23,0.0,0.4,92,0.00,,,0.00,WUHU216HW,2013-07-15 06:33:00,
2013-07-15 02:38:00,73.1,70.7,30.15,NNE,23,0.7,0.7,92,0.00,,,0.00,WUHU216HW,2013-07-15 06:38:00,
2013-07-15 02:43:00,73.1,70.7,30.16,NNE,23,0.4,0.9,92,0.00,,,0.00,WUHU216HW,2013-07-15 06:43:00,
2013-07-15 02:49:00,73.1,70.7,30.16,NNE,23,0.0,0.9,92,0.00,,,0.00,WUHU216HW,2013-07-15 06:49:00,
2013-07-15 02:54:00,73.1,70.7,30.15,NNE,23,0.0,0.4,92,0.00,,,0.00,WUHU216HW,2013-07-15 06:54:00,
2013-07-15 02:59:00,73.1,70.7,30.15,NNE,23,0.0,0.7,92,0.00,,,0.00,WUHU216HW,2013-07-15 06:59:00,
2013-07-15 03:04:00,73.1,70.9,30.15,NNE,23,0.4,0.7,93,0.00,,,0.00,WUHU216HW,2013-07-15 07:04:00,
2013-07-15 03:09:00,72.9,70.7,30.15,NE,45,1.8,1.8,93,0.00,,,0.00,WUHU216HW,2013-07-15 07:09:00,
2013-07-15 03:14:00,72.9,70.7,30.15,NE,45,1.3,1.8,93,0.00,,,0.00,WUHU216HW,2013-07-15 07:14:00,
2013-07-15 03:19:00,72.7,70.6,30.15,NE,45,1.6,2.0,93,0.00,,,0.00,WUHU216HW,2013-07-15 07:19:00,
2013-07-15 03:24:00,72.7,70.6,30.15,NE,45,0.7,2.0,93,0.00,,,0.00,WUHU216HW,2013-07-15 07:24:00,
2013-07-15 03:29:00,72.7,70.6,30.14,NE,45,1.3,2.0,93,0.00,,,0.00,WUHU216HW,2013-07-15 07:29:00,
2013-07-15 03:34:00,72.7,70.6,30.14,NE,45,1.1,2.0,93,0.00,,,0.00,WUHU216HW,2013-07-15 07:34:00,
2013-07-15 03:39:00,72.7,70.6,30.14,NNE,23,1.8,2.0,93,0.00,,,0.00,WUHU216HW,2013-07-15 07:39:00,
2013-07-15 03:44:00,72.7,70.6,30.14,NNE,23,1.3,2.5,93,0.00,,,0.00,WUHU216HW,2013-07-15 07:44:00,
2013-07-15 03:49:00,72.7,70.6,30.14,NE,45,1.1,2.5,93,0.00,,,0.00,WUHU216HW,2013-07-15 07:49:00,
2013-07-15 03:54:00,72.5,70.4,30.14,NE,45,0.4,1.8,93,0.00,,,0.00,WUHU216HW,2013-07-15 07:54:00,
2013-07-15 03:59:00,72.7,70.6,30.14,NE,45,0.7,1.6,93,0.00,,,0.00,WUHU216HW,2013-07-15 07:59:00,
2013-07-15 04:04:00,72.5,70.4,30.14,NNE,23,0.9,1.1,93,0.00,,,0.00,WUHU216HW,2013-07-15 08:04:00,
2013-07-15 04:09:00,72.7,70.6,30.14,NNE,23,0.0,1.6,93,0.00,,,0.00,WUHU216HW,2013-07-15 08:09:00,
2013-07-15 04:14:00,72.7,70.6,30.14,NNE,23,0.0,1.6,93,0.00,,,0.00,WUHU216HW,2013-07-15 08:14:00,
2013-07-15 04:19:00,72.5,70.4,30.14,NNE,23,0.9,1.1,93,0.00,,,0.00,WUHU216HW,2013-07-15 08:19:00,
2013-07-15 04:24:00,72.5,70.8,30.14,NE,45,0.7,1.1,94,0.00,,,0.00,WUHU216HW,2013-07-15 08:24:00,
2013-07-15 04:29:00,72.5,70.8,30.14,NE,45,0.7,1.1,94,0.00,,,0.00,WUHU216HW,2013-07-15 08:29:00,
2013-07-15 04:34:00,72.5,70.8,30.14,NNE,23,1.1,1.3,94,0.00,,,0.00,WUHU216HW,2013-07-15 08:34:00,
2013-07-15 04:39:00,72.5,70.8,30.14,NE,45,0.7,1.3,94,0.00,,,0.00,WUHU216HW,2013-07-15 08:39:00,
2013-07-15 04:44:00,72.5,70.8,30.14,NE,45,0.0,1.1,94,0.00,,,0.00,WUHU216HW,2013-07-15 08:44:00,
2013-07-15 04:49:00,72.5,70.8,30.14,NE,45,0.0,0.7,94,0.00,,,0.00,WUHU216HW,2013-07-15 08:49:00,
2013-07-15 04:54:00,72.7,70.9,30.14,NE,45,0.0,0.2,94,0.00,,,0.00,WUHU216HW,2013-07-15 08:54:00,
2013-07-15 04:59:00,72.7,70.9,30.14,NE,45,0.0,0.0,94,0.00,,,0.00,WUHU216HW,2013-07-15 08:59:00,
2013-07-15 05:04:00,72.7,70.9,30.14,NNE,23,0.0,0.0,94,0.00,,,0.00,WUHU216HW,2013-07-15 09:04:00,
2013-07-15 05:09:00,72.7,70.9,30.14,NNE,23,0.0,0.0,94,0.00,,,0.00,WUHU216HW,2013-07-15 09:09:00,
2013-07-15 05:14:00,72.5,70.8,30.14,NNE,23,0.9,0.9,94,0.00,,,0.00,WUHU216HW,2013-07-15 09:14:00,
2013-07-15 05:19:00,72.5,70.8,30.14,NNE,23,0.7,1.1,94,0.00,,,0.00,WUHU216HW,2013-07-15 09:19:00,
2013-07-15 05:24:00,72.5,70.8,30.14,NNE,23,0.7,1.1,94,0.00,,,0.00,WUHU216HW,2013-07-15 09:24:00,
2013-07-15 05:29:00,72.5,70.8,30.15,NE,45,1.1,1.6,94,0.00,,,0.00,WUHU216HW,2013-07-15 09:29:00,
2013-07-15 05:34:00,72.5,70.8,30.15,NE,45,0.4,1.6,94,0.00,,,0.00,WUHU216HW,2013-07-15 09:34:00,
2013-07-15 05:39:00,72.5,70.8,30.15,NE,45,0.2,0.9,94,0.00,,,0.00,WUHU216HW,2013-07-15 09:39:00,
2013-07-15 05:44:00,72.5,70.8,30.15,NNE,23,0.4,0.9,94,0.00,,,0.00,WUHU216HW,2013-07-15 09:44:00,
2013-07-15 05:49:00,72.5,70.8,30.15,North,0,0.0,0.9,94,0.00,,,0.00,WUHU216HW,2013-07-15 09:49:00,
2013-07-15 05:54:00,72.5,70.8,30.16,NE,45,0.0,1.1,94,0.00,,,0.00,WUHU216HW,2013-07-15 09:54:00,
2013-07-15 05:59:00,72.5,70.8,30.16,NE,45,0.0,1.1,94,0.00,,,0.00,WUHU216HW,2013-07-15 09:59:00,
2013-07-15 06:04:00,72.5,70.8,30.16,NNE,23,0.4,1.1,94,0.00,,,0.00,WUHU216HW,2013-07-15 10:04:00,
2013-07-15 06:09:00,72.5,70.8,30.16,NE,45,0.4,1.3,94,0.00,,,0.00,WUHU216HW,2013-07-15 10:09:00,
2013-07-15 06:14:00,72.5,70.8,30.16,NNE,23,1.1,1.3,94,0.00,,,0.00,WUHU216HW,2013-07-15 10:14:00,
2013-07-15 06:19:00,72.7,70.9,30.16,NNE,23,0.7,1.1,94,0.00,,,0.00,WUHU216HW,2013-07-15 10:19:00,
2013-07-15 06:24:00,72.7,70.9,30.16,NNE,23,0.0,1.1,94,0.00,,,0.00,WUHU216HW,2013-07-15 10:24:00,
2013-07-15 06:29:00,72.7,70.9,30.16,NNE,23,0.0,1.1,94,0.00,,,0.00,WUHU216HW,2013-07-15 10:29:00,
2013-07-15 06:34:00,72.9,71.1,30.16,NNE,23,1.6,1.8,94,0.00,,,0.00,WUHU216HW,2013-07-15 10:34:00,
2013-07-15 06:39:00,72.9,71.1,30.16,North,0,1.6,3.1,94,0.01,,,0.01,WUHU216HW,2013-07-15 10:39:00,
2013-07-15 06:44:00,72.9,71.1,30.16,North,0,0.4,3.1,94,0.01,,,0.01,WUHU216HW,2013-07-15 10:44:00,
2013-07-15 06:49:00,73.1,71.3,30.16,NNE,23,1.6,2.5,94,0.01,,,0.01,WUHU216HW,2013-07-15 10:49:00,
2013-07-15 06:54:00,73.1,71.3,30.16,NNE,23,0.7,2.5,94,0.01,,,0.01,WUHU216HW,2013-07-15 10:54:00,
2013-07-15 06:59:00,73.1,71.3,30.16,NE,45,0.7,1.3,94,0.01,,,0.01,WUHU216HW,2013-07-15 10:59:00,
2013-07-15 07:04:00,73.1,71.3,30.16,NE,45,0.0,1.3,94,0.01,,,0.01,WUHU216HW,2013-07-15 11:04:00,
2013-07-15 07:09:00,73.1,71.3,30.16,North,0,0.4,1.6,94,0.01,,,0.01,WUHU216HW,2013-07-15 11:09:00,
2013-07-15 07:14:00,73.3,71.5,30.16,North,0,0.7,1.6,94,0.01,,,0.01,WUHU216HW,2013-07-15 11:14:00,
2013-07-15 07:19:00,73.3,71.5,30.16,North,0,0.7,1.1,94,0.01,,,0.01,WUHU216HW,2013-07-15 11:19:00,
2013-07-15 07:24:00,73.4,71.9,30.16,North,0,0.7,1.1,95,0.01,,,0.01,WUHU216HW,2013-07-15 11:24:00,
2013-07-15 07:29:00,73.6,72.1,30.17,NNE,23,0.4,1.1,95,0.01,,,0.01,WUHU216HW,2013-07-15 11:29:00,
2013-07-15 07:34:00,73.6,72.1,30.17,NNE,23,1.1,1.3,95,0.01,,,0.01,WUHU216HW,2013-07-15 11:34:00,
2013-07-15 07:39:00,73.8,72.3,30.17,NNE,23,0.0,1.3,95,0.00,,,0.01,WUHU216HW,2013-07-15 11:39:00,
2013-07-15 07:44:00,74.0,72.5,30.17,NNE,23,0.0,1.1,95,0.00,,,0.01,WUHU216HW,2013-07-15 11:44:00,
2013-07-15 07:49:00,74.2,72.6,30.17,NNE,23,0.0,0.0,95,0.00,,,0.01,WUHU216HW,2013-07-15 11:49:00,
2013-07-15 07:54:00,74.3,72.8,30.17,NE,45,0.4,1.6,95,0.00,,,0.01,WUHU216HW,2013-07-15 11:54:00,
2013-07-15 07:59:00,74.5,73.0,30.17,NNE,23,0.0,1.6,95,0.00,,,0.01,WUHU216HW,2013-07-15 11:59:00,
2013-07-15 08:04:00,74.7,73.2,30.17,NE,45,0.0,0.9,95,0.00,,,0.01,WUHU216HW,2013-07-15 12:04:00,
2013-07-15 08:09:00,74.9,73.4,30.17,NE,45,1.3,1.3,95,0.00,,,0.01,WUHU216HW,2013-07-15 12:09:00,
2013-07-15 08:14:00,75.1,73.5,30.17,NE,45,1.6,1.8,95,0.01,,,0.02,WUHU216HW,2013-07-15 12:14:00,
2013-07-15 08:19:00,75.2,73.7,30.17,NE,45,1.8,2.5,95,0.01,,,0.02,WUHU216HW,2013-07-15 12:19:00,
2013-07-15 08:24:00,75.6,74.1,30.17,NNE,23,0.9,2.5,95,0.01,,,0.02,WUHU216HW,2013-07-15 12:24:00,
2013-07-15 08:29:00,76.0,74.4,30.18,NNE,23,1.1,1.3,95,0.01,,,0.02,WUHU216HW,2013-07-15 12:29:00,
2013-07-15 08:34:00,76.1,74.6,30.18,NNE,23,0.7,1.3,95,0.01,,,0.02,WUHU216HW,2013-07-15 12:34:00,
2013-07-15 08:39:00,76.5,75.0,30.18,NNE,23,1.3,1.3,95,0.01,,,0.02,WUHU216HW,2013-07-15 12:39:00,
2013-07-15 08:44:00,76.7,75.2,30.18,NE,45,1.6,1.8,95,0.01,,,0.02,WUHU216HW,2013-07-15 12:44:00,
2013-07-15 08:49:00,77.0,75.3,30.18,NNE,23,1.1,2.5,94,0.01,,,0.02,WUHU216HW,2013-07-15 12:49:00,
2013-07-15 08:54:00,77.4,75.6,30.18,NE,45,2.5,2.5,94,0.01,,,0.02,WUHU216HW,2013-07-15 12:54:00,
2013-07-15 08:59:00,77.8,76.0,30.18,NE,45,0.4,2.5,94,0.01,,,0.02,WUHU216HW,2013-07-15 12:59:00,
2013-07-15 09:04:00,78.3,76.5,30.18,North,0,2.0,3.4,94,0.01,,,0.02,WUHU216HW,2013-07-15 13:04:00,
2013-07-15 09:09:00,78.5,76.3,30.18,North,0,1.8,3.4,93,0.00,,,0.02,WUHU216HW,2013-07-15 13:09:00,
2013-07-15 09:14:00,78.8,76.4,30.18,NNE,23,1.1,2.2,92,0.00,,,0.02,WUHU216HW,2013-07-15 13:14:00,
2013-07-15 09:19:00,79.0,76.6,30.18,ENE,68,1.8,1.8,92,0.00,,,0.02,WUHU216HW,2013-07-15 13:19:00,
2013-07-15 09:24:00,79.2,76.7,30.18,NE,45,1.1,2.0,92,0.00,,,0.02,WUHU216HW,2013-07-15 13:24:00,
2013-07-15 09:29:00,79.6,76.8,30.18,NE,45,2.5,2.5,91,0.00,,,0.02,WUHU216HW,2013-07-15 13:29:00,
2013-07-15 09:34:00,79.9,77.0,30.18,NE,45,2.5,2.5,91,0.00,,,0.02,WUHU216HW,2013-07-15 13:34:00,
2013-07-15 09:39:00,80.1,77.0,30.18,East,90,2.0,2.5,90,0.00,,,0.02,WUHU216HW,2013-07-15 13:39:00,
2013-07-15 09:44:00,79.9,76.4,30.18,NNE,23,1.3,3.1,89,0.00,,,0.02,WUHU216HW,2013-07-15 13:44:00,
2013-07-15 09:49:00,79.7,76.2,30.18,NE,45,1.8,3.4,89,0.00,,,0.02,WUHU216HW,2013-07-15 13:49:00,
2013-07-15 09:54:00,79.6,76.4,30.18,ENE,68,1.6,3.4,90,0.00,,,0.02,WUHU216HW,2013-07-15 13:54:00,
2013-07-15 09:59:00,79.6,76.4,30.18,NE,45,1.1,2.2,90,0.00,,,0.02,WUHU216HW,2013-07-15 13:59:00,
2013-07-15 10:04:00,79.6,76.4,30.18,North,0,1.8,1.8,90,0.00,,,0.02,WUHU216HW,2013-07-15 14:04:00,
2013-07-15 10:09:00,79.7,76.6,30.18,North,0,1.3,1.8,90,0.00,,,0.02,WUHU216HW,2013-07-15 14:09:00,
2013-07-15 10:14:00,79.9,76.8,30.18,North,0,0.4,2.2,90,0.00,,,0.02,WUHU216HW,2013-07-15 14:14:00,
2013-07-15 10:19:00,80.5,77.2,30.18,NNE,23,0.4,2.2,90,0.00,,,0.02,WUHU216HW,2013-07-15 14:19:00,
2013-07-15 10:24:00,81.5,78.7,30.19,NNE,23,1.8,4.3,91,0.00,,,0.02,WUHU216HW,2013-07-15 14:24:00,
2013-07-15 10:29:00,82.1,77.9,30.19,ENE,68,2.0,4.3,87,0.00,,,0.02,WUHU216HW,2013-07-15 14:29:00,
2013-07-15 10:34:00,81.7,77.1,30.19,ENE,68,1.8,4.3,86,0.00,,,0.02,WUHU216HW,2013-07-15 14:34:00,
2013-07-15 10:39:00,81.4,76.8,30.19,ENE,68,2.9,3.4,86,0.00,,,0.02,WUHU216HW,2013-07-15 14:39:00,
2013-07-15 10:44:00,81.0,76.4,30.19,NE,45,1.6,2.9,86,0.00,,,0.02,WUHU216HW,2013-07-15 14:44:00,
2013-07-15 10:49:00,80.6,75.7,30.19,SE,135,2.5,2.5,85,0.00,,,0.02,WUHU216HW,2013-07-15 14:49:00,
2013-07-15 10:54:00,80.3,75.7,30.20,East,90,1.3,4.5,86,0.03,,,0.02,WUHU216HW,2013-07-15 14:54:00,
2013-07-15 10:59:00,79.0,74.5,30.20,NE,45,2.5,4.5,86,0.04,,,0.06,WUHU216HW,2013-07-15 14:59:00,
2013-07-15 11:04:00,78.1,74.0,30.20,ENE,68,1.3,3.4,87,0.06,,,0.07,WUHU216HW,2013-07-15 15:04:00,
2013-07-15 11:09:00,77.4,73.3,30.20,ENE,68,0.4,4.5,87,0.09,,,0.10,WUHU216HW,2013-07-15 15:09:00,
2013-07-15 11:14:00,77.0,73.3,30.20,ENE,68,0.7,4.5,88,0.10,,,0.12,WUHU216HW,2013-07-15 15:14:00,
2013-07-15 11:19:00,77.6,74.2,30.20,NE,45,1.1,2.5,89,0.10,,,0.12,WUHU216HW,2013-07-15 15:19:00,
2013-07-15 11:24:00,79.0,76.0,30.20,SSE,158,1.8,1.8,90,0.10,,,0.12,WUHU216HW,2013-07-15 15:24:00,
2013-07-15 11:29:00,80.3,76.4,30.20,East,90,0.9,1.8,88,0.10,,,0.12,WUHU216HW,2013-07-15 15:29:00,
2013-07-15 11:34:00,81.0,76.4,30.19,ENE,68,2.0,3.4,86,0.10,,,0.12,WUHU216HW,2013-07-15 15:34:00,
2013-07-15 11:39:00,81.7,76.4,30.19,SSW,203,4.7,4.7,84,0.10,,,0.12,WUHU216HW,2013-07-15 15:39:00,
2013-07-15 11:44:00,82.1,76.8,30.19,SSE,158,1.1,4.7,84,0.10,,,0.12,WUHU216HW,2013-07-15 15:44:00,
2013-07-15 11:49:00,82.4,77.5,30.19,East,90,0.7,1.8,85,0.10,,,0.12,WUHU216HW,2013-07-15 15:49:00,
2013-07-15 11:54:00,83.2,77.9,30.19,SSW,203,2.2,2.5,84,0.06,,,0.12,WUHU216HW,2013-07-15 15:54:00,
2013-07-15 11:59:00,83.9,77.8,30.20,SSE,158,0.0,5.6,82,0.06,,,0.12,WUHU216HW,2013-07-15 15:59:00,
2013-07-15 12:04:00,84.1,77.6,30.19,ENE,68,2.5,5.6,81,0.02,,,0.12,WUHU216HW,2013-07-15 16:04:00,
2013-07-15 12:09:00,84.2,77.4,30.19,SSE,158,1.6,3.1,80,0.00,,,0.12,WUHU216HW,2013-07-15 16:09:00,
2013-07-15 12:14:00,84.2,77.1,30.20,SE,135,1.1,5.6,79,0.00,,,0.12,WUHU216HW,2013-07-15 16:14:00,
2013-07-15 12:19:00,83.3,76.2,30.20,ESE,113,0.9,5.6,79,0.00,,,0.12,WUHU216HW,2013-07-15 16:19:00,
2013-07-15 12:24:00,82.4,76.2,30.21,East,90,2.5,4.7,81,0.01,,,0.13,WUHU216HW,2013-07-15 16:24:00,
2013-07-15 12:30:00,81.0,75.1,30.20,ENE,68,0.4,4.7,82,0.18,,,0.30,WUHU216HW,2013-07-15 16:30:00,
2013-07-15 12:35:00,79.9,74.4,30.20,SSE,158,0.4,2.0,83,0.20,,,0.33,WUHU216HW,2013-07-15 16:35:00,
2013-07-15 12:40:00,79.4,74.2,30.20,ENE,68,1.1,1.1,84,0.20,,,0.33,WUHU216HW,2013-07-15 16:40:00,
2013-07-15 12:45:00,79.2,74.4,30.19,ENE,68,0.4,1.1,85,0.20,,,0.33,WUHU216HW,2013-07-15 16:45:00,
2013-07-15 12:50:00,79.2,74.4,30.19,SE,135,0.0,1.3,85,0.20,,,0.33,WUHU216HW,2013-07-15 16:50:00,
2013-07-15 12:55:00,79.2,74.4,30.18,ENE,68,0.4,1.3,85,0.20,,,0.33,WUHU216HW,2013-07-15 16:55:00,
2013-07-15 13:00:00,79.4,74.5,30.18,NE,45,1.1,1.1,85,0.20,,,0.33,WUHU216HW,2013-07-15 17:00:00,
2013-07-15 13:05:00,79.6,75.1,30.18,NNE,23,0.2,1.1,86,0.20,,,0.33,WUHU216HW,2013-07-15 17:05:00,
2013-07-15 13:10:00,79.6,75.1,30.19,NNE,23,1.3,2.2,86,0.20,,,0.33,WUHU216HW,2013-07-15 17:10:00,
2013-07-15 13:15:00,79.7,75.2,30.19,NE,45,0.9,2.2,86,0.20,,,0.33,WUHU216HW,2013-07-15 17:15:00,
2013-07-15 13:20:00,79.7,75.2,30.18,ENE,68,0.4,1.6,86,0.19,,,0.33,WUHU216HW,2013-07-15 17:20:00,
2013-07-15 13:25:00,80.1,75.9,30.18,ENE,68,0.4,1.3,87,0.03,,,0.33,WUHU216HW,2013-07-15 17:25:00,
2013-07-15 13:30:00,81.4,77.4,30.17,NE,45,1.6,1.6,88,0.01,,,0.33,WUHU216HW,2013-07-15 17:30:00,
2013-07-15 13:35:00,82.8,78.8,30.16,East,90,1.8,1.8,88,0.00,,,0.33,WUHU216HW,2013-07-15 17:35:00,
2013-07-15 13:40:00,83.7,79.0,30.16,NE,45,1.1,4.0,86,0.00,,,0.33,WUHU216HW,2013-07-15 17:40:00,
2013-07-15 13:46:00,84.6,78.8,30.16,ENE,68,4.0,4.0,83,0.00,,,0.33,WUHU216HW,2013-07-15 17:46:00,
2013-07-15 13:51:00,85.5,80.1,30.17,ESE,113,1.3,4.0,84,0.00,,,0.33,WUHU216HW,2013-07-15 17:51:00,
2013-07-15 13:56:00,86.2,79.4,30.17,East,90,1.1,3.4,80,0.00,,,0.33,WUHU216HW,2013-07-15 17:56:00,
2013-07-15 14:01:00,86.0,78.9,30.17,SE,135,1.8,3.4,79,0.00,,,0.33,WUHU216HW,2013-07-15 18:01:00,
2013-07-15 14:06:00,86.4,78.8,30.17,South,180,1.6,3.1,78,0.00,,,0.33,WUHU216HW,2013-07-15 18:06:00,
2013-07-15 14:11:00,85.9,77.9,30.17,SE,135,2.5,5.4,77,0.00,,,0.33,WUHU216HW,2013-07-15 18:11:00,
2013-07-15 14:16:00,85.7,78.5,30.17,South,180,2.2,5.4,79,0.00,,,0.33,WUHU216HW,2013-07-15 18:16:00,
2013-07-15 14:21:00,86.4,77.9,30.17,SE,135,4.0,4.0,76,0.00,,,0.33,WUHU216HW,2013-07-15 18:21:00,
2013-07-15 14:26:00,87.7,79.2,30.16,SE,135,4.0,4.3,76,0.00,,,0.33,WUHU216HW,2013-07-15 18:26:00,
2013-07-15 14:31:00,88.2,78.0,30.16,North,0,1.8,6.7,72,0.00,,,0.33,WUHU216HW,2013-07-15 18:31:00,
2013-07-15 14:36:00,88.0,77.0,30.16,ENE,68,4.0,6.7,70,0.00,,,0.33,WUHU216HW,2013-07-15 18:36:00,
2013-07-15 14:41:00,88.0,77.0,30.16,ESE,113,1.3,6.0,70,0.00,,,0.33,WUHU216HW,2013-07-15 18:41:00,
2013-07-15 14:46:00,87.7,77.1,30.16,SSE,158,2.9,6.0,71,0.00,,,0.33,WUHU216HW,2013-07-15 18:46:00,
2013-07-15 14:51:00,87.8,76.4,30.16,ENE,68,4.0,4.0,69,0.00,,,0.33,WUHU216HW,2013-07-15 18:51:00,
2013-07-15 14:56:00,87.8,76.4,30.16,ENE,68,2.7,4.0,69,0.00,,,0.33,WUHU216HW,2013-07-15 18:56:00,
2013-07-15 15:01:00,88.0,77.0,30.16,ENE,68,3.4,4.3,70,0.00,,,0.33,WUHU216HW,2013-07-15 19:01:00,
2013-07-15 15:06:00,87.8,75.5,30.15,ENE,68,4.5,4.9,67,0.00,,,0.33,WUHU216HW,2013-07-15 19:06:00,
2013-07-15 15:11:00,87.7,76.7,30.15,SE,135,1.8,5.4,70,0.00,,,0.33,WUHU216HW,2013-07-15 19:11:00,
2013-07-15 15:16:00,87.7,75.8,30.15,ESE,113,4.0,5.4,68,0.00,,,0.33,WUHU216HW,2013-07-15 19:16:00,
2013-07-15 15:21:00,87.7,75.8,30.15,ESE,113,3.1,4.0,68,0.00,,,0.33,WUHU216HW,2013-07-15 19:21:00,
2013-07-15 15:26:00,87.3,76.4,30.15,East,90,2.2,4.0,70,0.00,,,0.33,WUHU216HW,2013-07-15 19:26:00,
2013-07-15 15:31:00,87.7,77.1,30.15,SSE,158,4.9,4.9,71,0.00,,,0.33,WUHU216HW,2013-07-15 19:31:00,
2013-07-15 15:36:00,88.2,76.8,30.15,SSE,158,4.0,4.9,69,0.00,,,0.33,WUHU216HW,2013-07-15 19:36:00,
2013-07-15 15:41:00,88.2,76.3,30.15,East,90,3.4,4.0,68,0.00,,,0.33,WUHU216HW,2013-07-15 19:41:00,
2013-07-15 15:46:00,88.2,75.4,30.15,South,180,5.4,5.4,66,0.00,,,0.33,WUHU216HW,2013-07-15 19:46:00,
2013-07-15 15:51:00,87.5,75.6,30.15,East,90,0.9,8.7,68,0.00,,,0.33,WUHU216HW,2013-07-15 19:51:00,
2013-07-15 15:56:00,87.5,76.1,30.15,NE,45,2.9,8.7,69,0.00,,,0.33,WUHU216HW,2013-07-15 19:56:00,
2013-07-15 16:01:00,87.5,75.2,30.15,ESE,113,3.6,4.3,67,0.00,,,0.33,WUHU216HW,2013-07-15 20:01:00,
2013-07-15 16:06:00,87.3,75.4,30.15,East,90,2.7,4.3,68,0.00,,,0.33,WUHU216HW,2013-07-15 20:06:00,
2013-07-15 16:12:00,87.7,74.9,30.15,SW,225,4.7,4.7,66,0.00,,,0.33,WUHU216HW,2013-07-15 20:12:00,
2013-07-15 16:17:00,88.0,76.2,30.15,ESE,113,1.8,6.9,68,0.00,,,0.33,WUHU216HW,2013-07-15 20:17:00,
2013-07-15 16:22:00,88.2,75.4,30.14,ESE,113,1.6,6.9,66,0.00,,,0.33,WUHU216HW,2013-07-15 20:22:00,
2013-07-15 16:27:00,88.0,75.3,30.14,ENE,68,1.3,5.6,66,0.00,,,0.33,WUHU216HW,2013-07-15 20:27:00,
2013-07-15 16:32:00,87.7,75.3,30.14,NNE,23,4.3,5.6,67,0.00,,,0.33,WUHU216HW,2013-07-15 20:32:00,
2013-07-15 16:37:00,87.3,75.0,30.15,ESE,113,2.5,5.1,67,0.00,,,0.33,WUHU216HW,2013-07-15 20:37:00,
2013-07-15 16:42:00,87.1,74.3,30.15,South,180,2.2,5.1,66,0.00,,,0.33,WUHU216HW,2013-07-15 20:42:00,
2013-07-15 16:47:00,86.8,74.5,30.15,SE,135,3.4,5.4,67,0.00,,,0.33,WUHU216HW,2013-07-15 20:47:00,
2013-07-15 16:52:00,86.9,74.7,30.15,South,180,1.6,6.7,67,0.00,,,0.33,WUHU216HW,2013-07-15 20:52:00,
2013-07-15 16:57:00,86.8,74.5,30.15,East,90,2.9,6.7,67,0.00,,,0.33,WUHU216HW,2013-07-15 20:57:00,
2013-07-15 17:02:00,86.0,74.4,30.15,East,90,1.8,6.3,68,0.00,,,0.33,WUHU216HW,2013-07-15 21:02:00,
2013-07-15 17:07:00,86.0,74.4,30.15,SSE,158,2.5,4.3,68,0.00,,,0.33,WUHU216HW,2013-07-15 21:07:00,
2013-07-15 17:12:00,86.4,75.1,30.15,SE,135,3.1,4.0,69,0.00,,,0.33,WUHU216HW,2013-07-15 21:12:00,
2013-07-15 17:17:00,86.8,75.0,30.15,SE,135,2.5,6.5,68,0.00,,,0.33,WUHU216HW,2013-07-15 21:17:00,
2013-07-15 17:22:00,86.2,74.0,30.15,NE,45,2.9,6.5,67,0.00,,,0.33,WUHU216HW,2013-07-15 21:22:00,
2013-07-15 17:27:00,86.0,74.4,30.15,ESE,113,2.5,4.0,68,0.00,,,0.33,WUHU216HW,2013-07-15 21:27:00,
2013-07-15 17:33:00,85.9,73.6,30.15,East,90,1.8,4.0,67,0.00,,,0.33,WUHU216HW,2013-07-15 21:33:00,
2013-07-15 17:38:00,85.5,73.8,30.15,ESE,113,2.0,3.4,68,0.00,,,0.33,WUHU216HW,2013-07-15 21:38:00,
2013-07-15 17:43:00,85.5,74.3,30.14,East,90,1.6,2.7,69,0.00,,,0.33,WUHU216HW,2013-07-15 21:43:00,
2013-07-15 17:48:00,85.5,74.3,30.14,ENE,68,2.0,3.4,69,0.00,,,0.33,WUHU216HW,2013-07-15 21:48:00,
2013-07-15 17:53:00,85.3,74.1,30.14,East,90,2.0,4.7,69,0.00,,,0.33,WUHU216HW,2013-07-15 21:53:00,
2013-07-15 17:58:00,85.0,73.7,30.14,NE,45,2.2,4.7,69,0.00,,,0.33,WUHU216HW,2013-07-15 21:58:00,
2013-07-15 18:03:00,84.8,73.5,30.15,East,90,1.1,5.4,69,0.00,,,0.33,WUHU216HW,2013-07-15 22:03:00,
2013-07-15 18:08:00,84.6,73.4,30.14,East,90,5.4,5.4,69,0.00,,,0.33,WUHU216HW,2013-07-15 22:08:00,
2013-07-15 18:13:00,84.4,73.6,30.14,ENE,68,1.3,5.4,70,0.00,,,0.33,WUHU216HW,2013-07-15 22:13:00,
2013-07-15 18:18:00,84.4,74.0,30.14,South,180,1.3,3.8,71,0.00,,,0.33,WUHU216HW,2013-07-15 22:18:00,
2013-07-15 18:23:00,84.2,73.4,30.14,NE,45,2.5,4.7,70,0.00,,,0.33,WUHU216HW,2013-07-15 22:23:00,
2013-07-15 18:29:00,84.1,73.3,30.14,ESE,113,0.7,4.7,70,0.00,,,0.33,WUHU216HW,2013-07-15 22:29:00,
2013-07-15 18:34:00,84.2,73.8,30.14,ENE,68,1.8,4.0,71,0.00,,,0.33,WUHU216HW,2013-07-15 22:34:00,
2013-07-15 18:39:00,84.2,73.8,30.14,ENE,68,1.8,4.0,71,0.00,,,0.33,WUHU216HW,2013-07-15 22:39:00,
2013-07-15 18:44:00,84.1,73.6,30.14,SE,135,1.8,4.3,71,0.00,,,0.33,WUHU216HW,2013-07-15 22:44:00,
2013-07-15 18:49:00,83.9,73.9,30.14,ENE,68,1.3,4.3,72,0.00,,,0.33,WUHU216HW,2013-07-15 22:49:00,
2013-07-15 18:54:00,83.9,73.9,30.15,ENE,68,3.6,3.6,72,0.00,,,0.33,WUHU216HW,2013-07-15 22:54:00,
2013-07-15 18:59:00,83.5,73.5,30.15,SE,135,0.9,3.6,72,0.00,,,0.33,WUHU216HW,2013-07-15 22:59:00,
2013-07-15 19:04:00,83.5,73.9,30.15,East,90,1.6,2.9,73,0.00,,,0.33,WUHU216HW,2013-07-15 23:04:00,
2013-07-15 19:09:00,83.5,73.9,30.15,East,90,0.9,2.9,73,0.00,,,0.33,WUHU216HW,2013-07-15 23:09:00,
2013-07-15 19:14:00,83.2,73.6,30.16,SSE,158,3.4,4.0,73,0.00,,,0.33,WUHU216HW,2013-07-15 23:14:00,
2013-07-15 19:19:00,83.2,74.0,30.16,ESE,113,1.1,4.0,74,0.00,,,0.33,WUHU216HW,2013-07-15 23:19:00,
2013-07-15 19:24:00,82.8,74.1,30.16,East,90,2.5,2.5,75,0.00,,,0.33,WUHU216HW,2013-07-15 23:24:00,
2013-07-15 19:29:00,82.8,74.1,30.15,ENE,68,2.9,2.9,75,0.00,,,0.33,WUHU216HW,2013-07-15 23:29:00,
2013-07-15 19:34:00,82.4,73.7,30.15,NE,45,2.9,4.0,75,0.00,,,0.33,WUHU216HW,2013-07-15 23:34:00,
2013-07-15 19:39:00,82.4,74.2,30.16,NE,45,2.2,4.0,76,0.00,,,0.33,WUHU216HW,2013-07-15 23:39:00,
2013-07-15 19:44:00,82.3,74.0,30.16,ENE,68,1.8,4.3,76,0.00,,,0.33,WUHU216HW,2013-07-15 23:44:00,
2013-07-15 19:49:00,82.1,74.2,30.16,ENE,68,1.8,4.3,77,0.00,,,0.33,WUHU216HW,2013-07-15 23:49:00,
2013-07-15 19:54:00,81.9,74.0,30.16,NE,45,1.3,3.4,77,0.00,,,0.33,WUHU216HW,2013-07-15 23:54:00,
2013-07-15 19:59:00,81.7,73.8,30.16,ENE,68,4.0,4.0,77,0.00,,,0.33,WUHU216HW,2013-07-15 23:59:00,
2013-07-15 20:04:00,81.7,73.8,30.16,ENE,68,0.2,4.0,77,0.00,,,0.33,WUHU216HW,2013-07-16 00:04:00,
2013-07-15 20:09:00,81.5,73.7,30.16,South,180,1.1,2.0,77,0.00,,,0.33,WUHU216HW,2013-07-16 00:09:00,
2013-07-15 20:14:00,81.4,73.5,30.16,NE,45,1.3,2.2,77,0.00,,,0.33,WUHU216HW,2013-07-16 00:14:00,
2013-07-15 20:19:00,81.2,73.4,30.16,NE,45,1.8,2.2,77,0.00,,,0.33,WUHU216HW,2013-07-16 00:19:00,
2013-07-15 20:24:00,81.0,73.5,30.16,NNE,23,1.1,2.5,78,0.00,,,0.33,WUHU216HW,2013-07-16 00:24:00,
2013-07-15 20:29:00,80.8,73.4,30.16,NNE,23,1.6,2.5,78,0.00,,,0.33,WUHU216HW,2013-07-16 00:29:00,
2013-07-15 20:34:00,80.6,73.2,30.16,ENE,68,0.7,2.5,78,0.00,,,0.33,WUHU216HW,2013-07-16 00:34:00,
2013-07-15 20:39:00,80.6,73.6,30.16,NE,45,0.4,2.2,79,0.00,,,0.33,WUHU216HW,2013-07-16 00:39:00,
2013-07-15 20:45:00,80.5,73.5,30.16,NE,45,1.1,2.0,79,0.00,,,0.33,WUHU216HW,2013-07-16 00:45:00,
2013-07-15 20:50:00,80.3,73.6,30.16,ENE,68,0.0,1.1,80,0.00,,,0.33,WUHU216HW,2013-07-16 00:50:00,
2013-07-15 20:55:00,80.3,73.6,30.16,ESE,113,0.0,1.1,80,0.00,,,0.33,WUHU216HW,2013-07-16 00:55:00,
2013-07-15 21:01:00,79.9,73.3,30.17,ENE,68,0.0,1.1,80,0.00,,,0.33,WUHU216HW,2013-07-16 01:01:00,
2013-07-15 21:06:00,79.9,73.6,30.17,NE,45,0.7,1.1,81,0.00,,,0.33,WUHU216HW,2013-07-16 01:06:00,
2013-07-15 21:11:00,79.9,73.6,30.18,NE,45,0.7,1.6,81,0.00,,,0.33,WUHU216HW,2013-07-16 01:11:00,
2013-07-15 21:16:00,79.7,73.5,30.17,NE,45,0.0,1.6,81,0.00,,,0.33,WUHU216HW,2013-07-16 01:16:00,
2013-07-15 21:21:00,79.6,73.3,30.18,NE,45,0.0,1.3,81,0.00,,,0.33,WUHU216HW,2013-07-16 01:21:00,
2013-07-15 21:26:00,79.6,73.6,30.18,NE,45,1.3,1.3,82,0.00,,,0.33,WUHU216HW,2013-07-16 01:26:00,
2013-07-15 21:31:00,79.4,73.5,30.18,NE,45,1.1,1.3,82,0.00,,,0.33,WUHU216HW,2013-07-16 01:31:00,
2013-07-15 21:36:00,79.2,73.6,30.18,NE,45,0.0,1.3,83,0.00,,,0.33,WUHU216HW,2013-07-16 01:36:00,
2013-07-15 21:41:00,79.2,73.6,30.18,NE,45,0.7,1.3,83,0.00,,,0.33,WUHU216HW,2013-07-16 01:41:00,
2013-07-15 21:46:00,79.0,73.5,30.19,NE,45,1.1,1.3,83,0.00,,,0.33,WUHU216HW,2013-07-16 01:46:00,
2013-07-15 21:52:00,79.0,73.5,30.19,NE,45,0.4,1.6,83,0.00,,,0.33,WUHU216HW,2013-07-16 01:52:00,
2013-07-15 21:57:00,78.8,73.6,30.19,NE,45,0.9,1.6,84,0.00,,,0.33,WUHU216HW,2013-07-16 01:57:00,
2013-07-15 22:02:00,78.8,73.6,30.19,NE,45,0.9,1.3,84,0.00,,,0.33,WUHU216HW,2013-07-16 02:02:00,
2013-07-15 22:07:00,78.7,73.4,30.20,NE,45,0.4,0.9,84,0.00,,,0.33,WUHU216HW,2013-07-16 02:07:00,
2013-07-15 22:12:00,78.5,73.3,30.20,NE,45,0.9,0.9,84,0.00,,,0.33,WUHU216HW,2013-07-16 02:12:00,
2013-07-15 22:17:00,78.5,73.6,30.20,NNE,23,0.0,0.9,85,0.00,,,0.33,WUHU216HW,2013-07-16 02:17:00,
2013-07-15 22:22:00,78.3,73.4,30.20,NNE,23,0.0,0.9,85,0.00,,,0.33,WUHU216HW,2013-07-16 02:22:00,
2013-07-15 22:27:00,78.3,73.4,30.20,NNE,23,0.0,0.7,85,0.00,,,0.33,WUHU216HW,2013-07-16 02:27:00,
2013-07-15 22:32:00,78.1,73.3,30.20,NNE,23,1.1,1.1,85,0.00,,,0.33,WUHU216HW,2013-07-16 02:32:00,
2013-07-15 22:37:00,78.1,73.3,30.20,NNE,23,1.1,1.3,85,0.00,,,0.33,WUHU216HW,2013-07-16 02:37:00,
2013-07-15 22:42:00,77.9,73.1,30.20,NE,45,0.4,1.6,85,0.00,,,0.33,WUHU216HW,2013-07-16 02:42:00,
2013-07-15 22:47:00,77.8,73.3,30.20,NE,45,0.9,1.6,86,0.00,,,0.33,WUHU216HW,2013-07-16 02:47:00,
2013-07-15 22:52:00,77.8,73.3,30.20,NE,45,1.3,1.6,86,0.00,,,0.33,WUHU216HW,2013-07-16 02:52:00,
2013-07-15 22:57:00,77.4,73.3,30.20,NE,45,0.4,1.6,87,0.00,,,0.33,WUHU216HW,2013-07-16 02:57:00,
2013-07-15 23:02:00,77.4,73.3,30.21,NE,45,0.0,1.1,87,0.00,,,0.33,WUHU216HW,2013-07-16 03:02:00,
2013-07-15 23:07:00,77.2,73.1,30.20,NE,45,1.1,1.1,87,0.00,,,0.33,WUHU216HW,2013-07-16 03:07:00,
2013-07-15 23:12:00,77.2,73.1,30.21,NNE,23,1.1,1.6,87,0.00,,,0.33,WUHU216HW,2013-07-16 03:12:00,
2013-07-15 23:17:00,77.0,72.9,30.21,NNE,23,0.9,1.6,87,0.00,,,0.33,WUHU216HW,2013-07-16 03:17:00,
2013-07-15 23:23:00,77.0,73.3,30.21,NNE,23,1.1,1.1,88,0.00,,,0.33,WUHU216HW,2013-07-16 03:23:00,
2013-07-15 23:28:00,77.0,73.3,30.21,NNE,23,0.4,1.1,88,0.00,,,0.33,WUHU216HW,2013-07-16 03:28:00,
2013-07-15 23:33:00,76.9,73.1,30.21,NE,45,0.9,1.3,88,0.00,,,0.33,WUHU216HW,2013-07-16 03:33:00,
2013-07-15 23:38:00,76.9,73.1,30.21,NNE,23,0.9,1.3,88,0.00,,,0.33,WUHU216HW,2013-07-16 03:38:00,
2013-07-15 23:43:00,76.7,72.9,30.21,NNE,23,0.7,1.3,88,0.00,,,0.33,WUHU216HW,2013-07-16 03:43:00,
2013-07-15 23:48:00,76.7,73.3,30.21,NNE,23,0.0,1.3,89,0.00,,,0.33,WUHU216HW,2013-07-16 03:48:00,
2013-07-15 23:54:00,76.7,73.3,30.21,NNE,23,0.0,0.7,89,0.00,,,0.33,WUHU216HW,2013-07-16 03:54:00,
2013-07-15 23:59:00,76.5,73.1,30.21,NNE,23,0.4,1.1,89,0.00,,,0.33,WUHU216HW,2013-07-16 03:59:00,